Location: Äußerer Vogelsberg
(48.3873°N, 8.4511°E)
Time: 11:31:44
(UTC+00:00)

Daily predictions for brighter satellites

Satellite Brightness Start Highest point End
(mag) Time Altitude Azimuth Time Altitude Azimuth Time Altitude Azimuth
Cosmos 1733 4.0 19:52:59 10° N 19:56:09 31° ENE 19:59:17 10° SE
Cosmos 1842 Rocket 3.6 19:51:51 10° S 19:56:16 86° E 20:00:41 10° N
SL-8 R/B 3.7 19:53:31 10° W 19:58:17 88° N 20:03:04 10° E
Lacrosse 5 rocket 3.5 19:57:45 10° NW 20:01:19 25° N 20:04:50 10° ENE
Ariane Rocket 3.7 19:56:38 10° SE 20:01:20 39° ENE 20:06:02 10° N
USA 234 4.1 19:56:36 10° NE 20:02:59 57° NNW 20:09:21 10° W
MOS 1 4.4 19:57:28 10° SSE 20:03:08 84° WSW 20:08:50 10° NNW
Okean 3 Rocket 4.2 20:05:22 10° NNW 20:09:40 56° W 20:13:56 10° S
CZ-4C R/B 3.4 20:09:14 10° NNE 20:13:10 88° WNW 20:17:13 10° SSW
ERS-1 Rocket 3.1 20:08:44 10° SSE 20:13:42 66° ENE 20:18:42 10° N
USA 59 Rocket 0.1 20:11:15 10° NW 20:15:06 79° NE 20:20:15 11° SE
SPOT 3 Rocket 4.0 20:10:46 10° SE 20:15:39 47° ENE 20:20:36 10° N
Cosmos 614 Rocket 4.5 20:11:19 10° S 20:16:08 41° ESE 20:21:01 10° NE
Cosmos 1818 4.2 20:12:22 10° S 20:17:16 35° ESE 20:22:14 10° NE
Cosmos 1340 Rocket 3.1 20:13:52 10° S 20:17:42 48° E 20:21:33 10° NNE
Lacrosse 4 Rocket 1.9 20:13:51 10° NNW 20:17:49 48° NE 20:21:37 11° SE
NOSS 2-1 (E) 3.6 20:14:18 10° NW 20:18:11 83° NE 20:23:14 11° SE
Meteor 1-27 Rocket 3.7 20:14:50 10° S 20:20:15 63° E 20:25:46 10° NNE
Resurs 01 Rocket 3.9 20:18:47 10° SW 20:22:13 22° W 20:25:40 10° NW
NOSS 8 (A) 4.4 20:18:15 10° SSW 20:22:18 70° SE 20:25:28 10° NE
IRS-1C Rocket 4.2 20:18:13 10° SSE 20:23:29 79° WSW 20:28:47 10° NNW
Okean O Rocket 3.7 20:21:03 10° SSW 20:24:40 24° W 20:28:17 10° NW
Terra 1.8 20:24:14 10° SSE 20:28:55 76° ENE 20:33:38 10° N
Cosmos 1833 Rocket 4.1 20:26:09 12° SE 20:29:33 20° E 20:33:29 10° NE
Cosmos 1805 3.7 20:26:19 10° N 20:29:52 41° ENE 20:32:42 15° SE
IRS-1A Rocket 4.4 20:25:11 10° S 20:30:46 74° WSW 20:36:18 10° NNW
NOSS 2-1 (D) 3.7 20:27:28 10° NW 20:31:20 75° SW 20:35:56 13° SSE
Cosmos 1656 3.9 20:26:59 10° NNW 20:32:24 58° ENE 20:37:08 14° SE
Cosmos 1743 Rocket 3.6 20:30:12 10° N 20:34:39 87° E 20:38:55 11° S
Cosmos 1408 Rocket 4.5 20:36:32 10° NNW 20:40:49 47° W 20:45:04 10° SSW
Okean 1 3.8 20:37:00 10° SSW 20:40:49 60° WNW 20:44:41 10° N
ARGOS Delta rocket 4.2 20:39:14 10° S 20:44:04 64° W 20:48:41 10° NNW
Centaur D AC-29 4.3 20:38:09 10° SSW 20:44:09 23° SSE 21:03:46 10° ESE
DELTA 2 R/B (1) 4.5 20:41:26 10° SW 20:46:04 27° SSE 20:50:43 10° ESE
Cosmos 1151 Rocket 3.0 20:43:29 10° S 20:47:48 74° E 20:52:08 10° NNE
Landsat 5 3.9 20:45:07 10° NNE 20:48:40 36° E 20:51:04 18° SSE
Cosmos 1975 3.0 20:47:15 10° N 20:51:09 56° ENE 20:53:47 19° SSE
Cosmos 1992 Rocket 4.0 20:49:18 10° NNW 20:54:33 87° ENE 20:58:33 17° SSE
MOS 1 Rocket 3.7 20:54:08 14° S 20:58:41 83° WSW 21:04:07 10° NNW
USA 281 3.4 20:54:10 16° SE 20:59:36 68° ENE 21:06:08 10° NNW
Cosmos 220 Rocket 4.0 20:57:30 10° SSW 21:01:51 88° WNW 21:06:10 10° NNE
NOSS 3-3 (A) 3.7 20:57:52 10° SSW 21:03:14 65° SE 21:09:29 10° NE
ARIANE 5 R/B 4.0 21:02:57 15° ESE 21:05:36 26° ENE 21:09:10 10° N
Cosmos 1092 Rocket 4.1 21:01:47 14° S 21:07:10 64° E 21:13:26 10° NNE
Cosmos 1328 Rocket 3.8 21:05:06 20° SSE 21:07:50 50° E 21:12:00 10° NNE
Cosmos 1340 3.9 21:06:43 10° NNW 21:09:44 31° W 21:12:29 12° SSW
Cosmos 2195 Rocket 4.4 21:07:42 12° S 21:13:27 82° E 21:19:36 10° N
Molniya-1 4.4 21:09:58 10° SW 21:13:45 84° SE 21:24:45 10° NE
Cosmos 1140 Rocket 4.4 21:14:22 21° SE 21:16:47 31° E 21:21:20 10° NE
Spot 2 Rocket 4.2 21:12:30 13° S 21:16:52 47° W 21:21:46 10° NNW
Nadezhda 4 Rocket 4.4 21:10:56 10° SSW 21:17:05 63° WNW 21:23:20 10° N
MetOp-A 3.9 21:14:04 21° SSE 21:17:18 87° ENE 21:22:25 10° NNW
Cosmos 1626 1.6 21:17:57 28° S 21:19:27 70° E 21:22:41 10° NNE
NOSS 3-4 (A) 4.2 21:12:55 10° NW 21:19:31 59° NE 21:26:14 14° ESE
NOSS 3-4 (C) 4.2 21:13:01 10° NW 21:19:37 58° NE 21:26:21 14° ESE
Cosmos 1707 4.1 21:26:10 20° ESE 21:26:53 21° E 21:29:40 10° NE
Cosmos 1697 Rocket 2.9 21:21:55 10° NNW 21:27:33 65° ENE 21:31:08 22° SE
BREEZE-M DEB (TANK) 2.9 21:17:50 10° SW 21:28:07 72° SSE 21:31:10 10° ENE
Cosmos 1470 Rocket 3.7 21:25:01 10° N 21:29:26 65° ENE 21:31:41 28° SSE
Cosmos 1633 Rocket 3.1 21:27:56 10° NNW 21:32:21 77° W 21:34:53 25° S
IRIDIUM 104 4.4 21:27:54 10° N 21:33:08 75° W 21:36:47 20° S
Orbus 7S? 3.6 21:30:34 10° SW 21:36:08 51° SE 21:39:13 10° ENE
NOSS 3-3 (C) 3.8 21:31:27 10° SW 21:36:54 85° NW 21:43:26 10° NE
Cosmos 1980 Rocket 3.1 21:32:14 10° NNW 21:37:39 42° NE 21:41:37 17° ESE
Cosmos 1666 Rocket 4.0 21:34:03 10° NNW 21:38:15 54° W 21:40:51 22° SSW
Ariane Rocket 4.4 21:36:07 11° SSW 21:40:19 31° W 21:44:51 10° NNW
Lacrosse 5 rocket 2.5 21:36:31 10° NW 21:40:31 40° NNE 21:44:16 11° E
SL-8 R/B 3.6 21:35:58 10° W 21:40:42 69° SSW 21:43:38 23° ESE
Cosmos 44 Rocket 3.2 21:38:26 10° NW 21:43:23 81° SW 21:45:49 30° SSE
Cosmos 1842 3.5 21:44:35 35° SE 21:45:33 44° E 21:49:05 10° NNE
Cosmos 1674 2.7 21:44:53 39° SE 21:45:44 50° E 21:49:08 10° NNE
Cosmos 1066 Rocket 4.3 21:46:58 21° S 21:51:05 88° ESE 21:57:00 10° NNE
Meteor 2-4 Rocket 4.4 21:46:41 10° SSW 21:52:29 56° WNW 21:58:20 10° N
Meteor 2-12 Rocket 4.4 21:50:05 24° S 21:53:57 74° E 22:00:07 10° NNE
Cosmos 1933 Rocket 3.7 21:50:02 10° N 21:54:23 61° ENE 21:56:09 33° SE
Cosmos 2026 Rocket 4.4 21:49:43 12° SSW 21:55:29 61° WNW 22:01:38 10° N
MINOTAUR 4 R/B 3.7 21:52:39 10° NNE 21:55:34 52° E 21:55:42 51° ESE
Lacrosse 4 Rocket 3.2 21:52:43 10° WNW 21:55:49 21° WSW 21:57:32 16° SW
KORONAS-FOTON 3.9 21:55:04 41° SE 21:56:00 54° E 21:59:38 10° NNE
Cosmos 407 Rocket 3.9 21:56:18 30° SSE 21:58:29 47° ESE 22:03:29 10° NNE
H-2A R/B 2.8 22:01:54 33° SE 22:03:33 57° ENE 22:07:46 10° N
USA 59 Rocket 2.3 22:01:50 10° W 22:04:43 17° WSW 22:06:48 14° SW
Cosmos 1607 4.0 21:58:46 10° SSW 22:05:14 81° SE 22:11:46 10° NE
Cosmos 2369 4.3 21:59:44 10° NNW 22:05:19 51° NE 22:08:52 22° ESE
Terra 4.2 22:04:29 10° WSW 22:07:03 14° W 22:09:38 10° NW
Cosmos 1766 4.0 22:04:35 10° NNW 22:08:10 43° W 22:09:34 29° SW
Cosmos 1833 Rocket 2.8 22:07:46 13° SW 22:12:51 73° WNW 22:18:29 10° NNE
ALOS 2 3.4 22:12:16 27° ESE 22:14:05 41° ENE 22:18:12 10° N
COSMOS 2406 4.0 22:15:19 28° SE 22:17:02 34° ESE 22:22:10 10° NE
SL-16 R/B 4.0 22:12:38 10° N 22:17:18 25° NE 22:21:58 10° E
Cosmos 1470 2.8 22:19:04 10° NNW 22:22:44 62° W 22:23:37 45° SSW
S3M 4.0 22:19:27 10° N 22:25:54 83° E 22:29:12 31° SSE
Cosmos 2082 Rocket 2.6 22:23:56 33° SSE 22:26:02 47° ESE 22:31:30 10° NE
Cosmos 2251 Rocket 3.5 22:24:49 33° S 22:27:13 73° ESE 22:32:31 10° NNE
DELTA 2 R/B (1) 4.2 22:26:43 10° WSW 22:31:29 33° S 22:31:29 33° S
Cosmos 1553 Rocket 4.5 22:25:57 10° NNW 22:31:48 51° W 22:35:15 24° SSW
Meteor 2-10 Rocket 4.0 22:30:27 10° N 22:36:13 59° ENE 22:38:54 31° SE
GEOS 3 Rocket 3.8 22:32:07 10° NE 22:37:17 70° NW 22:42:22 10° SW
SL-08 ROCKET BODY 4.4 22:34:31 32° S 22:37:37 79° E 22:43:48 10° N
Cosmos 1908 3.2 22:35:08 10° NNW 22:38:39 59° W 22:39:14 50° SW
Cosmos 724 4.5 22:34:34 12° SW 22:40:08 72° NW 22:45:59 10° NE
ARIANE 5 R/B 3.5 22:40:25 29° SW 22:41:51 37° W 22:45:53 10° NNW
Meteor 1-13 Rocket 4.3 22:40:24 31° SSW 22:43:25 87° W 22:49:18 10° N
USA 281 4.5 22:41:02 18° SW 22:44:33 28° WSW 22:50:06 10° NW
Cosmos 2315 Rocket 4.0 22:40:07 10° N 22:46:29 81° E 22:49:34 33° SSE
H-2A R/B 3.2 22:44:59 10° NE 22:48:53 30° E 22:49:42 28° ESE
USA 267 4.4 22:45:21 10° ENE 22:50:23 23° SE 22:51:04 23° SE
Cosmos 2285 Rocket 4.3 22:48:47 20° SW 22:53:19 65° WNW 22:59:41 10° NNE
Cosmos 1346 Rocket 3.5 22:54:17 10° N 22:58:01 43° ENE 22:58:57 36° ESE
Meteor 1-22 Rocket 4.2 22:53:36 10° NNW 22:58:57 72° W 23:01:09 37° S
Spot 4 4.2 22:58:19 37° SSW 22:59:52 54° W 23:04:34 10° NNW
Cosmos 1707 4.1 23:00:27 23° WSW 23:01:43 29° WNW 23:04:58 10° N
Cosmos 1733 Rocket 3.1 22:57:38 10° N 23:01:59 68° E 23:03:12 44° SE
BREEZE-M DEB (TANK) 4.4 22:56:51 10° WSW 23:02:01 83° SSE 23:26:49 10° ENE
Cosmos 2278 4.1 22:57:57 10° NNW 23:03:38 59° ENE 23:07:01 24° SE
Cosmos 1400 Rocket 2.7 23:02:59 57° S 23:03:43 81° ESE 23:07:42 10° NNE
Cosmos 2266 Rocket 4.3 23:02:10 27° SSW 23:05:38 61° WNW 23:11:55 10° N
Cosmos 1300 2.3 23:02:43 10° N 23:06:18 82° ENE 23:06:40 69° SSE
Cosmos 1869 Rocket 4.4 23:04:42 10° NNW 23:08:47 40° W 23:10:01 32° SW
NOSS 3-4 (A) 4.4 23:03:54 10° NW 23:10:26 43° WSW 23:13:38 29° SSW
NOSS 3-4 (C) 4.4 23:03:59 10° NW 23:10:32 43° WSW 23:13:46 30° SSW
Cosmos 1697 Rocket 4.2 23:06:44 10° NW 23:10:59 23° WSW 23:12:51 19° SW
Cosmos 1441 Rocket 4.1 23:08:32 10° NNW 23:11:45 32° W 23:12:05 31° WSW
Cosmos 2322 Rocket 3.4 23:07:06 10° NNW 23:12:21 37° NE 23:17:16 11° ESE
Meteor 1-21 4.4 23:11:02 36° SSE 23:13:18 66° E 23:19:03 10° NNE
Cosmos 841 Rocket 3.9 23:08:13 10° NNW 23:13:25 58° ENE 23:16:05 28° SE
Lacrosse 5 rocket 1.4 23:14:57 10° WNW 23:19:00 51° SW 23:19:04 51° SW
Okean 1-7 3.9 23:18:10 32° ESE 23:19:11 37° E 23:23:10 10° NNE
Cosmos 2228 Rocket 3.1 23:19:15 46° SSW 23:20:33 79° W 23:25:07 10° N
Cosmos 1980 Rocket 3.0 23:16:22 10° NW 23:21:36 38° WSW 23:23:22 30° SW
USA 234 4.0 23:21:22 10° E 23:27:44 55° NNE 23:34:04 10° NW
Cosmos 2333 Rocket 3.6 23:22:38 10° NNW 23:27:54 36° NE 23:33:10 10° ESE
Cosmos 1356 Rocket 3.3 23:27:09 55° S 23:28:01 85° E 23:32:12 10° NNE
Cosmos 540 Rocket 3.8 23:23:59 10° NNW 23:28:58 50° WSW 23:30:28 38° SSW
Cosmos 1655 Rocket 4.4 23:26:16 28° SW 23:29:42 59° WNW 23:36:02 10° N
Cosmos 1953 3.0 23:27:21 10° N 23:31:07 44° ENE 23:32:08 35° ESE
Cosmos 1763 Rocket 4.4 23:26:31 10° NW 23:31:20 36° WSW 23:32:48 30° SW
Genesis I 4.0 23:33:03 32° ESE 23:33:03 32° ESE 23:35:48 10° NE
Cosmos 468 Rocket 4.4 23:29:07 10° NNW 23:34:13 50° WSW 23:35:47 37° SSW
SL-14 R/B 3.7 23:36:11 42° WSW 23:36:59 50° WNW 23:40:43 10° N
GP-B 3.4 23:32:43 10° N 23:37:02 55° W 23:38:18 40° SW
H-2A R/B 4.5 23:37:53 16° WSW 23:38:51 17° W 23:41:37 10° NW
Cosmos 1703 Rocket 4.4 23:38:29 32° SE 23:39:46 40° E 23:43:57 10° NNE
Cosmos 1455 2.5 23:39:15 10° N 23:42:38 47° ENE 23:43:13 42° ESE
Cosmos 1862 Rocket 3.7 23:42:08 43° SW 23:43:20 63° WNW 23:47:41 10° N
CZ-3 Stage 3 4.5 23:32:41 10° WSW 23:43:40 23° SSW 23:43:40 23° SSW
Aureole 3 2.8 23:44:34 62° WNW 23:44:34 62° WNW 23:47:49 10° N
SJ 16-02 2.9 23:45:36 21° ESE 23:46:36 23° E 23:49:59 10° NE
Cosmos 676 Rocket 4.2 23:44:45 32° SW 23:47:13 67° WNW 23:52:34 10° NNE
RESURS DK-1 3.7 23:44:28 10° NNW 23:48:17 36° NE 23:51:07 16° ESE
ALOS 2 4.1 23:49:40 22° WSW 23:50:33 24° W 23:54:07 10° NW
